Regional Weather Roundup
Issued by NWS

Home | Current Version | Previous Version | Text Only | Print | Product List | Glossary On
Versions: 1 2 3 4 5 6 7 8 9 10 11 12 13 14 15 16 17 18 19 20 21 22 23 24 25 26 27 28 29 30 31 32 33 34 35 36 37 38 39 40 41 42 43 44 45 46 47 48 49 50
000
ASUS45 KSLC 260710
RWRUT

UTAH REGIONAL WEATHER ROUNDUP
NATIONAL WEATHER SERVICE SALT LAKE CITY UT
100 AM MDT WED APR 26 2017

UTZ001>011-023>025-260800-

NORTHERN UTAH

CITY           SKY/WX    TMP DP  RH WIND       PRES   REMARKS
BRIGHAM CITY   CLOUDY    47  35  63 CALM      29.93R
HILL AFB       CLOUDY    42  32  68 SE8       29.93R
LOGAN          MOCLDY    43  37  79 CALM      29.92S
OGDEN          CLOUDY    42  34  73 S7        29.92R
SALT LAKE CITY PTCLDY    44  36  73 SE10      29.93R
WENDOVER       CLOUDY    51  25  36 N5        29.93
HEBER CITY     PTCLDY    32  28  86 CALM      29.95S

$$

UTZ011>015-024>027-260800-

CENTRAL/NORTHEAST UTAH

CITY           SKY/WX    TMP DP  RH WIND       PRES   REMARKS
PROVO AIRPORT  PTCLDY    41  35  79 CALM      29.96S
MOAB/CANYONLAN CLEAR     45  35  68 CALM      29.89R
DELTA          PTCLDY    34  28  80 S6        29.95R WCI  29
PRICE          PTCLDY    40  27  59 NW9       29.92R WCI  34
RICHFIELD      CLEAR     32  27  80 CALM      29.99F
VERNAL         CLOUDY    41  31  67 CALM      29.90R

$$

UTZ013>016-019>022-027-260800-

SOUTHERN UTAH

CITY           SKY/WX    TMP DP  RH WIND       PRES   REMARKS
BRYCE CANYON   CLEAR     26  17  68 NW6       29.99F WCI  19
CEDAR CITY     PTCLDY    34  22  61 CALM      29.95F
MILFORD        CLEAR     36  25  64 SW7       29.96S WCI  30
ST GEORGE      MOSUNNY   51  22  31 SE5       29.91S
HANKSVILLE     CLEAR     46  27  46 NW7       29.93R
KANAB          CLEAR     37  23  56 N5        30.00S WCI  34
BLANDING       CLEAR     40  22  47 NW9       29.97R WCI  34

$$

REGIONAL REPORTS     COLORADO/ARIZONA

CITY           SKY/WX    TMP DP  RH WIND       PRES   REMARKS
CRAIG, CO      CLEAR     31  26  82 SW6       29.91R WCI  25
GRAND JUNCTION CLOUDY    38  35  89 N7        29.89S WCI  33
RIFLE, CO      CLOUDY    40  35  83 W14G21    29.90R WCI  32
MONTROSE, CO   CLOUDY    38  32  79 SE6       29.93R WCI  33
CORTEZ, CO     CLEAR     33  27  78 E7        29.89S WCI  27
COLORADO CITY    N/A     34  21  60 S6        29.98R WCI  29
PAGE, AZ       CLEAR     53  19  26 W7        29.90F
GRAND CANYON   CLEAR     37  15  40 N6        29.98F WCI  32
KINGMAN, AZ    CLEAR     44  20  38 CALM      29.90F
FLAGSTAFF, AZ  CLEAR     34  17  50 CALM      29.98F

$$

REGIONAL REPORTS    NEVADA/IDAHO/WYOMING

CITY           SKY/WX    TMP DP  RH WIND       PRES   REMARKS
LAS VEGAS, NV  PTCLDY    67  14  13 S5        29.86S
ELY, NY        CLOUDY    33  24  69 S8        30.00R WCI  26
ELKO, NV       CLOUDY    45  32  60 SW7       29.97R
POCATELLO, ID  PTCLDY    43  30  60 S15       29.89S
BURLEY, ID     MOCLDY    43  31  62 SW8       29.90S
FORT BRIDGER,    N/A     33  32  96 W12       29.96S WCI  24
EVANSTON, WY   CLOUDY    31  29  92 SW9       29.94S WCI  23
ROCK SPRINGS,  CLOUDY    34  30  85 SW8       29.90R WCI  27
KEMMERER, WY     N/A     32  32 100 CALM      29.93S

$$



USA.gov is the U.S. government's official web portal to all federal, state and local government web resources and services.